ODIN

Last updated on Thu Oct 30 2025 00:03:36 GMT+0000 (Coordinated Universal Time)

1 26702U 01007A 25302.34254341 .00037626 00000+0 72414-3 0 9997 2 26702 97.4309 328.9658 0001604 305.5654 54.5447 15.47807862353458
UTC large
Height (km)
Speed (km/s)
/
Latitude / Longitude
Inclination (degrees)
Orbital Period (minutes)
Azimuth
Elevation
Range (km)
Doppler Factor

Next 0 passes for location: London (51.5072 / 0.1276)

Sorry there are no passes over London.